Location: Asheville, NC
(35.6000°N, 82.5500°W)
Time: 17:23:10
(UTC-04:00)

CUTE 1.7 + AOD 2 - Pass Details

Date: 12 February 2018
Orbit: 594 x 614 km, 97.5° (Epoch: 21 May)

Event Time Altitude Azimuth Distance (km) Brightness Sun altitude
Rises 18:44:57 0° 171° (S) 2,831 ? -7.9°
Reaches altitude 10° 18:47:07 10° 172° (S) 1,929 ? -8.3°
Maximum altitude 18:51:18 76° 259° (W) 618 ? -9.2°
Drops below altitude 10° 18:55:30 10° 345° (NNW) 1,933 ? -10.0°
Sets 18:57:40 0° 347° (NNW) 2,837 ? -10.4°
